OpenBCM V1.08-5-g2f4a (Linux)

Packet Radio Mailbox

IZ3LSV

[San Dona' di P. JN]

 Login: GUEST





  
I0OJJ  > KEPS     22.05.25 02:44l 357 Lines 16943 Bytes #61 (0) @ AMSAT
BID : ORB25142.1
Read: GUEST
Subj: 2Line Orbital Elements 25142.AMSAT
Path: IZ3LSV<IK6IHL<IK7NXU<HB9ON<DK0WUE<PD0LPM<PI8ZTM<VK2IO<VK2RZ<IR0AAB<
      I0OJJ<I0OJJ
Sent: 250522/0025z @:I0OJJ.ITA.EU [Rome] obcm1.08-10-g596e

>From i0ojj%i0ojj.ita.eu@i0ojj.ampr.org Thu May 22 02:25:08 2025
Received: from i0ojj.ampr.org by i0ojj.ampr.org (JNOS2.0p.8) with SMTP
	id AA17032172 ; Thu, 22 May 2025 02:25:08 +0200
Message-Id: <ORB25142.1@i0ojj.bbs>
>From: i0ojj@i0ojj.ita.eu
X-JNOS-User-Port: Telnet   (i0ojj @ 44.134.109.10)  -> Sending message

From: I0OJJ @ I0OJJ.ITA.EU (Gustavo)
To:   KEPS @ AMSAT
X-Info: This message was generated automatically


QST de W1STR

AMSAT Orbital Elements for Amateur Satellites in TLE Format
>From Orbital Analysis Office
New England Sci-Tech STEM Education Center
Natick, MA May 22, 2025
To all radio amateurs


These element sets describe the orbits of various satellites 
in use by the amateur radio community. For details see:
www.amsat.org/keplerian-elements-formats/

A daily update of element sets is available at:
www.amsat.org/tle/daily-bulletin.txt
or without bulletin text:
www.amsat.org/tle/dailytle.txt


AO-07
1 07530U 74089B   25141.58663108 -.00000026  00000-0  12524-3 0  9999
2 07530 101.9934 145.6482 0012383 156.6853 321.5583 12.53689176311443
UO-11
1 14781U 84021B   25141.31918713  .00001455  00000-0  15911-3 0  9997
2 14781  97.7533 108.0714 0009031  48.0818 312.1168 14.89330771198777
AO-27
1 22825U 93061C   25141.75600575  .00000092  00000-0  52198-4 0  9996
2 22825  98.7374 203.2164 0008792 160.8459 199.3055 14.30792836651294
FO-29
1 24278U 96046B   25141.60351318 -.00000040  00000-0 -55635-5 0  9993
2 24278  98.5780  37.9907 0350590  31.9230 330.2641 13.53247605420200
NOAA-15
1 25338U 98030A   25141.80942695  .00000212  00000-0  10478-3 0  9995
2 25338  98.5361 167.3915 0011277  58.7467 301.4818 14.26968523405721
GO-32
1 25397U 98043D   25141.51395963  .00000080  00000-0  54656-4 0  9992
2 25397  98.9695 120.2365 0000212 244.9193 115.1963 14.24310253395570
ISS
1 25544U 98067A   25141.82846711  .00008673  00000-0  16172-3 0  9994
2 25544  51.6356  77.6637 0002178 134.0504 226.0664 15.49649749511077
NO-44
1 26931U 01043C   25141.50513965  .00000115  00000-0  74189-4 0  9996
2 26931  67.0492 177.1583 0005888 274.4441  85.5988 14.31724935234379
SO-50
1 27607U 02058C   25141.58572360  .00000955  00000-0  13699-3 0  9996
2 27607  64.5531 259.1628 0054098 338.3814  21.5007 14.81575741206418
CO-55
1 27844U 03031E   25141.56768222  .00000299  00000-0  14939-3 0  9992
2 27844  98.6761 150.0865 0008506 238.8155 121.2190 14.23981448135931
CO-57
1 27848U 03031J   25140.94483739  .00000291  00000-0  14781-3 0  9991
2 27848  98.6792 149.4925 0008268 260.5833  99.4411 14.23317817135573
RS-22
1 27939U 03042A   25141.85962034  .00001110  00000-0  18383-3 0  9998
2 27939  98.3269 310.8614 0012657  72.0418  64.3363 14.72306599158077
NOAA-18
1 28654U 05018A   25141.79444298  .00000191  00000-0  12461-3 0  9997
2 28654  98.8421 221.4815 0014372 178.2954 181.8270 14.13600959 31093
CO-58
1 28895U 05043F   25141.88008870  .00001403  00000-0  23706-3 0  9995
2 28895  98.2475 286.0001 0014578  11.7211 348.4332 14.70953192 44426
CO-65
1 32785U 08021C   25141.58161538  .00004426  00000-0  32256-3 0  9993
2 32785  97.7847 112.6085 0007659 279.1058  80.9301 15.04248780926222
CO-66
1 32791U 08021J   25141.39585095  .00011879  00000-0  58294-3 0  9997
2 32791  97.7269 121.0176 0002342 198.4097 161.7052 15.18254367927586
RS-30
1 32953U 08025A   25141.81135364  .00000016  00000-0  39869-4 0  9997
2 32953  82.5037 238.8468 0020502  88.3213 272.0215 12.43164425771200
NOAA-19
1 33591U 09005A   25141.86865277  .00000166  00000-0  11243-3 0  9994
2 33591  98.9978 206.4672 0014607  59.7475 300.5141 14.13364602839469
SRMSAT
1 37841U 11058D   25141.51014075  .00000418  00000-0  82977-4 0  9994
2 37841  19.9723 269.9514 0011646 215.0383 215.2089 14.11430150702413
ZACUBE-1
1 39417U 13066B   25141.59753968  .00003643  00000-0  31961-3 0  9994
2 39417  97.7782  98.7162 0045627 114.5168 246.0821 14.96457966622076
Delfi-N3xt
1 39428U 13066N   25141.73570237  .00006924  00000-0  70746-3 0  9997
2 39428  97.8357  59.6005 0087108  63.1171 297.8916 14.88080741616450
GOMX-1
1 39430U 13066Q   25141.87268276  .00001359  00000-0  21857-3 0  9998
2 39430  97.6857   1.6844 0131131 252.1933 106.4930 14.67567625612664
LO-74
1 39440U 13066AA  25141.60367108  .00003137  00000-0  32186-3 0  9997
2 39440  97.8483  86.2982 0060509 242.0846 117.4236 14.89811675618618
AO-73
1 39444U 13066AE  25141.36304545  .00007169  00000-0  53977-3 0  9990
2 39444  97.7828 103.2060 0043827  91.5847 269.0398 15.02044410620700
DTUSAT-2
1 40030U 14033W   25141.91262124  .00005797  00000-0  38068-3 0  9994
2 40030  98.0546 112.8341 0011001 117.2600 242.9749 15.08009342594097
EO-80
1 40032U 14033Y   25141.46948971  .00007495  00000-0  48988-3 0  9996
2 40032  98.0418 112.0506 0010304  69.1680 291.0650 15.08078370593496
LILACSAT-2
1 40908U 15049K   25141.81516673  .00010043  00000-0  26646-3 0  9995
2 40908  97.5074 161.7138 0008142 216.8358 143.2329 15.38478360535349
IO-86
1 40931U 15052B   25103.16584653  .00001824  00000-0  15574-3 0  9999
2 40931   5.9984   7.7323 0012484  15.4851 344.5658 14.78734415515920
Horyu-4
1 41340U 16012D   25141.63883515  .00020983  00000-0  57434-3 0  9992
2 41340  30.9966 259.2412 0006501 213.6864 146.3369 15.36083700509878
Lapan A3
1 41603U 16040E   25141.85852391  .00003032  00000-0  10766-3 0  9990
2 41603  97.1373 147.2025 0010334 346.7168  13.3800 15.29731817494920
CAS-2T
1 41847U 16066G   25141.82666615  .00000893  00000-0  13729-3 0  9991
2 41847  98.4203 216.4516 0345293 235.1254 121.7026 14.43421905448317
CAS-4B
1 42759U 17034B   25141.86184092  .00051774  00000-0  59564-3 0  9999
2 42759  43.0073  73.2471 0018867 165.3266 194.8149 15.60989947439672
CAS-4A
1 42761U 17034D   25141.84532369  .00054986  00000-0  60475-3 0  9995
2 42761  43.0112  70.6919 0020226 169.3559 190.7737 15.62093556439692
TechnoSat
1 42829U 17042E   25141.71960354  .00002313  00000-0  18241-3 0  9995
2 42829  97.3929 311.3352 0013402 349.1907  10.9028 15.01616044427895
AO-91
1 43017U 17073E   25141.10644787  .00006325  00000-0  32913-3 0  9990
2 43017  97.5295  12.3750 0172017 232.5704 125.9764 15.04426229406282
S-Net D
1 43186U 18014G   25141.17100421  .00003964  00000-0  23690-3 0  9990
2 43186  97.5640  44.2760 0007421 298.0996  61.9483 15.11637324399448
S-Net B
1 43187U 18014H   25141.63951629  .00003752  00000-0  22453-3 0  9997
2 43187  97.5647  44.7104 0008036 289.9587  70.0778 15.11622165399514
S-Net A
1 43188U 18014J   25140.97286448  .00004103  00000-0  24504-3 0  9994
2 43188  97.5655  44.1983 0007941 293.6701  66.3696 15.11640903399413
S-Net C
1 43189U 18014K   25141.70805737  .00003730  00000-0  22321-3 0  9995
2 43189  97.5670  44.9371 0009372 281.0095  79.0080 15.11619884398070
Ten-Koh
1 43677U 18084G   25141.45747539  .00001985  00000-0  16275-3 0  9992
2 43677  98.0886 312.9556 0005586 344.5822  15.5229 15.00488219357378
PO-101
1 43678U 18084H   25141.82243598  .00002051  00000-0  17796-3 0  9994
2 43678  98.1019 317.2327 0007549 358.4729   1.6467 14.98243887357571
QO-100
1 43700U 18090A   25141.07058709  .00000153  00000-0  00000-0 0  9990
2 43700   0.0129 307.4416 0002020 152.5689 190.1514  1.00269629 23745
MinXSS-2
1 43758U 18099A   25141.43779440  .00014662  00000-0  58682-3 0  9996
2 43758  97.5026 207.4190 0011461 215.0411 145.0074 15.25114275354059
AO-95
1 43770U 18099N   25141.71851709  .00008080  00000-0  41305-3 0  9991
2 43770  97.4925 200.0161 0009036 276.6069  83.4135 15.16891481353697
RANGE-A
1 43773U 18099R   25141.37040942  .00003463  00000-0  22333-3 0  9995
2 43773  97.4492 190.3301 0009743 254.6525 105.3627 15.08911245353326
MOVE-II
1 43780U 18099Y   25141.75441325  .00177244  00000-0  15392-2 0  9990
2 43780  97.4662 216.0494 0006561 200.3622 159.7378 15.68515435354844
SNUSat 2
1 43782U 18099AA  25141.37960113  .00007188  00000-0  39527-3 0  9997
2 43782  97.4608 196.5880 0011467 212.9372 147.1146 15.14318666353592
SnugLite
1 43784U 18099AC  25141.88480097  .00007757  00000-0  39333-3 0  9990
2 43784  97.4427 196.6070 0003167 190.3487 169.7682 15.17217344353802
ITASat 1
1 43786U 18099AE  25141.56242731  .00005817  00000-0  33536-3 0  9992
2 43786  97.4579 196.3326 0012733 270.9388  89.0384 15.12692415353586
EAGLET 1
1 43790U 18099AJ  25141.65144099  .00003058  00000-0  19778-3 0  9992
2 43790  97.4771 196.4376 0010611 251.2348 108.7730 15.08889127353219
ESEO
1 43792U 18099AL  25141.55564932  .00002142  00000-0  16534-3 0  9995
2 43792  97.4465 189.8584 0012038 227.1291 132.8924 15.02528388352969
CSIM
1 43793U 18099AM  25141.53951919  .00164914  00000-0  14752-2 0  9994
2 43793  97.4821 218.0631 0007683 195.4086 164.6942 15.67813039354655
JO-97
1 43803U 18099AX  25141.10607583  .00011116  00000-0  51286-3 0  9993
2 43803  97.4672 200.3617 0007339 200.0004 160.0944 15.20383396353816
Suomi 100
1 43804U 18099AY  25141.41917507  .00008838  00000-0  43691-3 0  9996
2 43804  97.4740 200.0217 0011987 206.7976 153.2640 15.18010504353790
ISAT
1 43879U 18111D   25141.19550209  .00018177  00000-0  64351-3 0  9993
2 43879  97.5965  55.1699 0006383 265.1320  94.9190 15.29175463348716
UWE-4
1 43880U 18111E   25140.73235374  .00012953  00000-0  51580-3 0  9993
2 43880  97.5908  53.3114 0009868 283.0781  76.9355 15.25333064350601
Sparrow
1 43881U 18111F   25141.58508981  .00020119  00000-0  68630-3 0  9992
2 43881  97.6109  58.3727 0005150 321.8982  38.1893 15.30371111350883
Prox-1
1 44339U 19036A   25141.80382728  .00008530  00000-0  10790-2 0  9998
2 44339  23.9962 185.0974 0007009 213.8131 146.1919 14.79581544315328
